Weerawila Airport

Jump to: basic info | weather | frequencies | runways | comments

Related pages: nearby airports | nearby navaids | notams | map

Basic information (top)

Codes: WRZ VCCW
Location: lon 6.254490, lat 81.235199, elev 50 ft / 15 m msl
Status: small_airport
Scheduled airline service: yes
Links: Wikipedia Mobile

Weather (top)

Current conditions for Mattala Rajapaksa International Airport 7nm (13km) WNW (rec'd 2015/03/29 02:10Z):

VCRI 290210Z 05010KT 9999 FEW017 28/23 Q1011 NOSIG

Airport forecast for Bandaranaike International Colombo Airport 98nm (181km) NW (rec'd 2015/03/28 00:00Z):

TAF VCBI 282140Z 2900/3006 VRB05KT 9999 SCT016 TX32/2908Z TN24/3000Z 
      TEMPO 2900/2903 6000 
      BECMG 2904/2906 27010KT PROB40 
      TEMPO 2909/2915 7000 TSRA/SHRA SCT012 BKN016 FEW018CB 
      BECMG 2914/2916 11006KT

Frequencies (top)

Verify before use: may be inaccurate or out of date.

TWR: 118.1 MHz (TWR)

Runways (top)

07/25: 4,000 x 93 ft (1,219 x 28 m) — paved — not lighted

Latest comments (top)

No comments yet for Weerawila Airport

More... (top)

See also NOTAMs and nearby airports and navaids, or visit the Weerawila Airport page at the main OurAirports website..